Location: Cortos
(40.7190°N, 4.5893°W)
Time: 04:37:07
(UTC+00:00)

CZ-2C R/B - Pass Details

Date: 05 July 2020
Orbit: 784 x 871 km, 98.3° (Epoch: 11 August)

Event Time Altitude Azimuth Distance (km) Brightness Sun altitude
Rises 20:48:40 0° 7° (N) 3,397 6.4 -9.4°
Reaches altitude 10° 20:51:07 10° 2° (N) 2,446 5.7 -9.7°
Maximum altitude 20:56:19 50° 289° (WNW) 1,033 3.6 -10.5°
Drops below altitude 10° 21:01:22 10° 215° (SW) 2,376 5.0 -11.2°
Sets 21:03:43 0° 210° (SSW) 3,291 5.6 -11.5°
